Location: Albany
(42.6526°N, 73.7562°W)
Time: 01:33:21
(UTC+00:00)

Sich 1 - Pass Details

Date: 19 November 2019
Orbit: 595 x 625 km, 82.5° (Epoch: 06 December)

Event Time Altitude Azimuth Distance (km) Brightness Sun altitude
Rises 22:11:28 0° 353° (N) 2,876 6.4 -8.0°
Reaches altitude 10° 22:13:41 10° 356° (N) 1,972 5.5 -8.4°
Maximum altitude 22:18:03 72° 81° (E) 648 3.0 -9.2°
Drops below altitude 10° 22:22:25 10° 166° (SSE) 1,975 5.7 -9.9°
Sets 22:24:39 0° 169° (SSE) 2,880 6.6 -10.3°
